Location: Fatehalanka
(16.3139°N, 80.8379°E)
Time: 08:20:24
(UTC+00:00)

Cosmos 2285 Rocket - Pass Details

Date: 14 May 2026
Orbit: 970 x 997 km, 74.0° (Epoch: 5 June)

Event Time Altitude Azimuth Distance (km) Brightness Sun altitude
Rises 22:03:10 0° 344° (NNW) 3,664 7.2 -27.5°
Reaches altitude 10° 22:05:42 10° 344° (NNW) 2,719 6.5 -27.0°
Maximum altitude 22:12:00 80° 257° (WSW) 995 3.8 -25.7°
Enters shadow 22:16:55 18° 172° (S) 2,213 5.6 -24.7°
